Weather reports worldwide

Advertisment
Akron, oh, United States of America (2074227): temperature & dewpoint: 17.07.2019 16:00:00 - 23.07.2019 16:00:00 (EDT)Akron, oh, United States of America (2074227): wind speed & gusts: 17.07.2019 16:00:00 - 23.07.2019 16:00:00 (EDT)Akron, oh, United States of America (2074227): wind direction: 17.07.2019 16:00:00 - 23.07.2019 16:00:00 (EDT)Akron, oh, United States of America (2074227): reduced air pressure: 17.07.2019 16:00:00 - 23.07.2019 16:00:00 (EDT)Akron, oh, United States of America (2074227): visibility: 17.07.2019 16:00:00 - 23.07.2019 16:00:00 (EDT)Akron, oh, United States of America (2074227): precipitation: 17.07.2019 16:00:00 - 23.07.2019 16:00:00 (EDT)
Date & Time tt [°C] td [°C] ff [km/h] ff [kn] fx [km/h] fx [kn] dd ppp [hPa] vv [km] rr [mm]
23.07.2019 16:00:00 23,9 10,6 16 9 - - N 1014,6 16 -
23.07.2019 15:00:00 25,6 9,4 18 10 - - NW 1014,6 16 -
23.07.2019 14:00:00 25,0 9,4 15 8 52 28 W 1015,0 16 -
23.07.2019 13:00:00 23,9 10,0 18 10 - - WNW 1015,3 16 -
23.07.2019 12:00:00 24,4 12,2 18 10 - - N 1015,5 16 -
23.07.2019 11:00:00 22,8 11,7 21 11 - - N 1015,6 16 -
23.07.2019 10:00:00 22,8 12,8 16 9 - - NNW 1015,3 16 -
23.07.2019 09:00:00 21,1 13,9 13 7 - - N 1015,5 16 -
23.07.2019 08:00:00 19,4 13,9 8 4 - - N 1015,3 16 -
23.07.2019 07:00:00 17,2 13,9 0 0 - - N 1014,8 16 -
23.07.2019 06:00:00 17,2 13,9 0 0 - - N 1014,2 16 -
23.07.2019 05:00:00 18,3 13,3 5 3 - - NW 1014,0 16 -
23.07.2019 04:00:00 19,4 13,9 5 3 - - NW 1014,0 16 -
23.07.2019 03:00:00 19,4 13,3 8 4 - - WNW 1013,7 16 -
23.07.2019 02:00:00 19,4 13,3 9 5 - - NW 1013,6 16 -
23.07.2019 01:00:00 20,0 13,9 11 6 - - NNW 1013,9 16 -
23.07.2019 00:00:00 20,0 15,6 9 5 - - NNW 1013,7 16 -
22.07.2019 23:00:00 20,6 16,1 13 7 - - NNW 1013,8 16 -
22.07.2019 22:00:00 22,2 16,1 15 8 - - N 1013,1 16 -
22.07.2019 21:00:00 22,2 16,1 11 6 - - N 1012,7 16 -
22.07.2019 20:00:00 22,8 16,7 9 5 - - NNW 1012,5 16 0,0
22.07.2019 19:00:00 22,8 15,6 13 7 - - NNW 1012,4 16 0,0
22.07.2019 18:00:00 23,3 16,1 18 10 - - NW 1012,2 16 -
22.07.2019 17:00:00 24,4 15,6 24 13 - - NNW 1011,6 16 -
22.07.2019 16:00:00 25,0 16,7 18 10 - - NNW 1011,6 16 -
22.07.2019 15:00:00 25,0 16,7 24 13 - - N 1011,7 16 -
22.07.2019 14:00:00 23,3 16,7 18 10 - - NE 1012,0 16 -
22.07.2019 13:00:00 22,2 16,7 18 10 - - NNE 1011,9 16 -
22.07.2019 12:00:00 19,4 17,2 13 7 - - NE 1012,6 16 -
22.07.2019 11:00:00 19,4 16,7 18 10 - - NNE 1012,5 16 -
22.07.2019 10:00:00 19,4 17,2 21 11 - - N 1011,9 3,2 0,0
22.07.2019 09:00:00 20,6 16,1 13 7 - - ENE 1011,2 16 0,0
22.07.2019 08:00:00 20,6 17,2 8 4 - - NNW 1011,5 16 0,0
22.07.2019 07:00:00 20,6 17,2 9 5 - - NE 1011,1 16 0,0
22.07.2019 06:00:00 21,1 17,2 8 4 - - NE 1011,1 16 -
22.07.2019 05:00:00 21,1 18,3 5 3 - - NE 1010,9 16 0,0
22.07.2019 04:00:00 21,7 18,9 0 0 - - N 1010,8 16 0,3
22.07.2019 03:00:00 22,2 20,0 11 6 - - NE 1011,3 16 0,3
22.07.2019 02:00:00 22,8 20,6 8 4 - - E 1011,6 16 -
22.07.2019 01:00:00 23,9 21,1 8 4 - - E 1012,6 16 0,0
22.07.2019 00:00:00 24,4 21,7 8 4 - - NNW 1013,2 15 -
21.07.2019 23:00:00 24,4 22,2 0 0 - - N 1012,5 16 -
21.07.2019 22:00:00 24,4 22,8 5 3 - - S 1012,4 16 -
21.07.2019 21:00:00 24,4 22,2 8 4 - - WNW 1013,4 8 0,0
21.07.2019 20:00:00 26,7 22,2 5 3 - - NW 1012,3 11 0,0
21.07.2019 19:00:00 27,8 20,6 11 6 - - W 1012,4 16 0,3
21.07.2019 18:00:00 27,2 21,7 0 0 - - N 1011,8 16 0,3
21.07.2019 17:00:00 26,1 21,1 9 5 55 30 NNW 1011,4 16 0,0
21.07.2019 16:00:00 32,2 22,8 9 5 - - - 1011,5 16 -
21.07.2019 15:00:00 33,3 22,8 13 7 - - SW 1011,8 16 -
21.07.2019 14:00:00 32,8 23,3 8 4 - - - 1012,2 16 -
21.07.2019 13:00:00 31,7 22,8 8 4 - - W 1013,0 16 -
21.07.2019 12:00:00 30,6 22,8 8 4 - - - 1013,6 16 -
21.07.2019 11:00:00 28,9 22,2 11 6 - - N 1013,7 16 -
21.07.2019 10:00:00 28,3 22,8 13 7 - - NNW 1013,4 16 -
21.07.2019 09:00:00 28,3 22,8 0 0 - - N 1013,3 16 -
21.07.2019 08:00:00 26,7 22,2 0 0 - - N 1013,3 16 -
21.07.2019 07:00:00 26,7 22,8 9 5 - - N 1012,9 16 -
21.07.2019 06:00:00 27,2 22,8 5 3 - - N 1012,5 16 -
21.07.2019 05:00:00 26,7 22,8 8 4 - - SW 1011,6 16 -
21.07.2019 04:00:00 27,2 22,2 8 4 - - WSW 1011,7 16 -
21.07.2019 03:00:00 27,8 22,2 18 10 - - SW 1011,5 16 -
21.07.2019 02:00:00 27,8 22,8 15 8 - - SSW 1011,4 16 -
21.07.2019 01:00:00 27,8 22,8 9 5 - - SSW 1011,7 16 -
21.07.2019 00:00:00 28,3 22,8 13 7 - - SW 1011,7 16 -
20.07.2019 23:00:00 28,9 22,8 9 5 - - SSW 1012,2 16 -
20.07.2019 22:00:00 28,9 22,8 11 6 - - SSW 1012,5 16 -
20.07.2019 21:00:00 30,6 22,8 15 8 - - SW 1012,5 16 -
20.07.2019 20:00:00 32,2 22,2 13 7 - - WSW 1012,2 16 -
20.07.2019 19:00:00 33,3 22,8 16 9 - - WSW 1012,2 16 -
20.07.2019 18:00:00 33,9 22,8 24 13 - - SW 1012,1 16 -
20.07.2019 17:00:00 33,9 22,8 21 11 - - SW 1012,1 16 -
20.07.2019 16:00:00 33,9 21,7 24 13 - - SW 1011,6 16 -
20.07.2019 15:00:00 33,9 22,8 21 11 - - SW 1011,6 16 -
20.07.2019 14:00:00 33,9 23,9 18 10 - - WSW 1011,6 16 -
20.07.2019 13:00:00 30,6 23,3 16 9 - - SSW 1012,1 16 -
20.07.2019 12:00:00 30,6 23,3 16 9 - - SW 1012,3 16 -
20.07.2019 11:00:00 28,9 22,8 18 10 - - SSW 1012,2 16 -
20.07.2019 10:00:00 27,2 23,3 9 5 - - S 1013,0 16 -
20.07.2019 09:00:00 26,1 22,8 5 3 - - S 1013,7 16 0,0
20.07.2019 08:00:00 26,1 22,2 11 6 - - SW 1014,5 16 0,0
20.07.2019 07:00:00 26,7 23,3 21 11 - - WSW 1013,9 15 -
20.07.2019 06:00:00 26,7 23,3 15 8 - - SSW 1013,4 15 -
20.07.2019 05:00:00 26,1 23,3 13 7 - - SSW 1013,8 13 -
20.07.2019 04:00:00 26,7 23,3 11 6 - - SSW 1013,8 15 -
20.07.2019 03:00:00 27,2 23,9 11 6 - - SW 1013,5 15 -
20.07.2019 02:00:00 27,2 23,9 9 5 - - SSW 1013,8 16 -
20.07.2019 01:00:00 28,3 23,9 11 6 - - SW 1013,5 16 -
20.07.2019 00:00:00 28,3 24,4 16 9 - - SSW 1012,4 16 -
19.07.2019 23:00:00 28,9 25,0 11 6 - - SW 1012,9 16 -
19.07.2019 22:00:00 29,4 25,0 15 8 - - SSW 1012,6 16 -
19.07.2019 21:00:00 30,0 24,4 9 5 - - SSW 1012,4 16 -
19.07.2019 20:00:00 31,7 24,4 13 7 - - SSW 1011,8 16 -
19.07.2019 19:00:00 32,8 24,4 15 8 - - WSW 1012,0 16 -
19.07.2019 18:00:00 32,8 24,4 24 13 - - SSW 1012,2 16 -
19.07.2019 17:00:00 33,3 23,9 16 9 - - SW 1012,6 16 -
19.07.2019 16:00:00 33,9 25,0 16 9 - - WSW 1012,7 16 -
19.07.2019 15:00:00 32,2 24,4 16 9 - - SSW 1012,7 16 -
19.07.2019 14:00:00 32,2 25,6 18 10 - - SSW 1012,7 16 -
19.07.2019 13:00:00 31,7 25,0 22 12 - - SW 1012,9 16 -
19.07.2019 12:00:00 30,6 25,0 18 10 - - SSW 1012,8 16 -
19.07.2019 11:00:00 29,4 24,4 16 9 - - SW 1013,3 16 -
19.07.2019 10:00:00 28,3 23,3 15 8 - - WSW 1014,0 16 -
19.07.2019 09:00:00 27,2 22,8 18 10 - - WSW 1013,3 16 -
19.07.2019 08:00:00 25,6 22,2 13 7 - - SW 1013,0 16 -
19.07.2019 07:00:00 25,0 21,7 15 8 - - SW 1012,7 16 -
19.07.2019 06:00:00 25,6 21,1 13 7 - - SW 1012,5 16 -
19.07.2019 05:00:00 25,6 21,1 18 10 - - SW 1012,3 16 -
19.07.2019 04:00:00 25,0 21,1 13 7 - - SSW 1012,5 16 -
19.07.2019 03:00:00 25,6 21,7 11 6 - - SSW 1012,7 16 -
19.07.2019 02:00:00 26,1 22,2 15 8 - - SW 1012,8 16 -
19.07.2019 01:00:00 26,7 22,8 13 7 - - SSW 1012,5 16 -
19.07.2019 00:00:00 26,1 22,8 13 7 - - SSW 1012,4 16 -
18.07.2019 23:00:00 26,7 22,2 13 7 - - SSW 1012,5 16 -
18.07.2019 22:00:00 27,2 22,2 8 4 - - S 1012,0 16 -
18.07.2019 21:00:00 27,8 22,8 8 4 - - SSW 1011,6 16 -
18.07.2019 20:00:00 28,9 22,2 11 6 - - SW 1010,7 16 0,0
18.07.2019 19:00:00 30,0 21,7 9 5 - - SSE 1009,2 16 -
18.07.2019 18:00:00 31,1 21,1 18 10 - - WSW 1012,0 16 -
18.07.2019 17:00:00 31,7 21,1 11 6 - - WSW 1012,5 16 -
18.07.2019 16:00:00 31,7 20,0 - - - - - 1013,0 16 -
18.07.2019 15:00:00 31,1 20,6 11 6 - - WNW 1013,8 16 -
18.07.2019 14:00:00 31,1 21,1 11 6 - - W 1014,1 16 -
18.07.2019 13:00:00 30,6 20,0 15 8 - - SW 1014,2 16 -
18.07.2019 12:00:00 30,0 18,9 9 5 - - - 1013,7 16 -
18.07.2019 11:00:00 28,9 20,0 8 4 - - WSW 1014,0 16 -
18.07.2019 10:00:00 26,7 18,9 8 4 - - - 1014,3 16 -
18.07.2019 09:00:00 25,0 20,6 0 0 - - N 1014,5 16 -
18.07.2019 08:00:00 22,2 20,6 0 0 - - N 1013,9 6 -
18.07.2019 07:00:00 22,2 20,6 0 0 - - N 1013,2 0,8 -
18.07.2019 06:00:00 22,2 20,6 0 0 - - N 1013,3 0,8 -
18.07.2019 05:00:00 22,2 20,0 0 0 - - N 1013,1 13 -
18.07.2019 04:00:00 22,2 20,6 0 0 - - N 1012,6 16 -
18.07.2019 03:00:00 22,2 20,6 5 3 - - SSW 1013,1 16 -
18.07.2019 02:00:00 22,2 20,0 5 3 - - SW 1013,4 16 -
18.07.2019 01:00:00 22,8 20,6 0 0 - - N 1013,3 16 -
18.07.2019 00:00:00 23,9 20,6 0 0 - - N 1013,0 16 -
17.07.2019 23:00:00 25,0 21,1 5 3 - - N 1012,9 16 -
17.07.2019 22:00:00 25,6 20,6 5 3 - - N 1012,7 16 -
17.07.2019 21:00:00 26,7 21,1 9 5 - - NNW 1012,1 16 -
17.07.2019 20:00:00 28,3 21,1 11 6 - - NNW 1011,5 16 -
17.07.2019 19:00:00 28,9 20,6 21 11 - - N 1010,9 16 -
17.07.2019 18:00:00 28,9 21,1 13 7 - - N 1010,7 16 -
17.07.2019 17:00:00 28,3 23,3 8 4 - - NNW 1010,9 16 0,3
17.07.2019 16:00:00 28,3 22,2 13 7 - - SW 1010,9 16 -

tt = temperature
td = dewpoint
ff = wind speed
fx = gusts
dd = wind direction
ppp = reduced air pressure
vv = visibility
rr = precipitation

Next stations